Wind_Speed
43 42 43 43 43 44 43 42 42 42 43 42 43 43 43 42 41 41 40 39 38 37 36 34 33 32 30 28 27 25 23 22 21 22 22 19 17 15 14 13 12 11 9 8 7 7 8 9 8 8 7 7 6 5 5 5 5 5 5 5 7 7 6 6 5 4 3 3 2 3 3 2 3 4 4 5 6 7 7 6 6 6 7 7 5
37 39 42 42 43 44 43 43 43 43 43 43 43 43 43 43 42 42 41 40 39 38 37 36 35 33 31 30 28 26 24 22 22 22 23 20 18 16 15 14 13 12 10 9 8 8 9 10 10 9 8 7 6 6 6 7 6 6 6 6 6 8 8 8 7 5 4 3 3 4 4 2 2 4 5 6 6 5 4 4 4 5 7 8 7
38 41 43 44 44 44 44 45 44 44 43 42 42 42 42 43 42 42 42 41 40 39 38 37 35 33 31 29 28 27 25 23 22 22 22 21 19 17 16 15 14 13 11 10 9 9 10 10 10 9 8 8 7 6 7 7 7 7 7 6 7 8 9 10 8 7 5 4 5 5 4 3 2 2 4 5 5 4 3 2 2 2 4 6 7
40 42 44 45 45 45 46 47 46 44 43 43 42 42 42 42 42 42 42 42 41 40 39 37 35 33 31 30 29 28 27 25 24 23 22 22 20 19 17 17 15 14 11 10 9 9 10 11 11 10 9 8 7 6 7 7 6 6 7 7 7 8 9 10 9 8 7 6 6 5 4 4 3 2 3 5 6 5 3 1 1 1 2 4 5
43 43 45 46 48 49 49 48 47 46 46 45 43 42 42 41 40 40 40 41 41 40 40 38 37 35 33 32 31 30 29 28 26 25 24 23 22 20 19 18 16 15 12 10 9 9 10 11 11 10 10 9 8 7 7 7 7 6 6 7 8 8 9 10 10 9 8 7 7 6 5 4 4 3 3 4 5 6 4 3 2 1 2 2 4
45 46 47 48 49 49 48 48 48 49 48 46 44 42 41 40 39 39 39 39 38 39 39 39 38 37 36 35 34 33 32 31 29 27 25 24 23 21 20 19 18 17 14 11 9 10 10 10 10 10 10 9 9 8 8 8 8 7 6 7 7 7 9 11 11 10 10 9 8 7 7 6 5 5 5 6 6 6 6 4 3 3 3 2 2
44 44 45 46 47 48 49 50 51 51 50 47 45 43 42 41 40 39 38 37 37 36 37 38 38 37 36 37 37 36 35 33 30 27 25 24 23 22 21 20 20 19 16 13 11 10 10 10 10 10 10 10 10 10 9 9 9 7 7 7 7 8 9 11 12 11 11 10 8 8 9 9 7 7 7 7 8 7 6 6 5 4 4 3 1
45 44 44 46 48 50 52 53 53 52 50 48 47 45 43 42 41 39 38 37 36 35 35 37 37 37 36 36 37 37 37 34 30 28 26 25 24 23 22 21 21 20 18 15 13 11 11 10 9 10 10 11 11 11 10 10 9 9 8 8 8 9 10 10 12 13 12 11 9 8 9 10 9 8 8 8 9 9 8 7 6 6 6 5 3
47 47 47 48 50 51 52 53 53 51 49 49 48 46 44 43 41 40 39 38 37 36 35 35 35 36 36 35 36 37 37 35 32 29 28 26 25 25 24 23 22 21 20 17 15 13 12 11 10 11 11 11 12 12 11 11 11 10 9 8 8 9 10 10 11 13 13 12 11 9 10 10 10 10 9 9 10 10 10 8 7 8 8 6 4
46 48 49 49 50 51 50 50 50 51 51 50 49 47 45 44 43 42 40 39 37 36 36 35 35 35 35 35 35 35 36 36 34 32 30 28 27 25 25 24 23 22 21 19 17 15 14 13 12 12 12 12 13 12 12 12 11 11 10 10 9 9 10 11 11 12 13 12 11 10 11 11 11 11 11 11 11 11 11 10 9 9 9 6 4
45 47 48 48 48 47 47 47 48 50 50 49 49 48 47 46 45 44 42 40 39 37 36 36 36 36 35 35 34 34 35 36 36 35 32 30 28 26 25 25 23 23 22 20 18 16 15 15 15 14 13 14 14 13 13 12 11 12 12 11 11 10 10 11 11 12 13 12 12 11 11 11 11 11 12 12 13 12 12 12 11 10 11 9 6
46 46 45 44 44 44 46 48 48 48 49 49 50 49 49 48 47 46 44 43 41 39 38 37 36 36 35 35 34 34 34 35 36 35 33 31 29 27 26 25 24 23 23 21 19 18 16 16 16 16 16 15 15 14 13 12 12 13 13 13 12 11 11 11 12 12 12 13 13 12 12 11 11 11 12 13 13 13 13 14 13 13 14 12 9
45 45 44 43 45 47 49 50 49 49 50 50 50 50 50 49 48 47 46 45 43 41 40 38 37 36 36 35 35 34 34 35 35 35 34 32 30 29 27 26 25 24 23 22 20 18 17 17 16 16 16 16 16 15 14 13 13 13 14 15 14 12 11 11 11 11 11 12 13 13 13 13 13 12 13 14 14 13 14 15 14 15 16 15 13
45 45 45 45 48 50 50 51 51 51 51 51 51 51 51 50 50 49 48 46 45 43 41 39 38 36 35 35 35 34 35 35 35 35 34 33 31 30 28 27 26 24 23 22 20 18 17 17 16 16 16 16 17 16 15 14 14 15 15 15 15 13 11 12 12 11 11 12 12 13 14 14 13 13 14 15 15 15 14 14 14 15 17 16 15
44 45 45 48 50 50 50 51 51 52 52 52 52 52 52 52 51 50 49 48 46 45 43 41 39 37 35 35 35 35 35 35 36 35 34 33 32 31 30 28 26 24 22 20 19 19 18 18 17 16 16 17 17 17 17 16 16 16 16 16 16 14 13 13 12 12 12 12 13 13 13 14 13 13 13 14 15 15 15 15 15 15 17 17 17
43 43 46 48 49 49 49 50 51 52 52 52 53 53 53 53 52 51 50 49 47 46 45 43 40 38 36 35 34 35 35 36 36 36 34 34 33 32 31 29 27 25 23 21 20 20 20 19 19 18 17 17 18 18 18 18 17 17 17 17 17 16 15 14 13 13 13 13 13 13 14 13 13 13 13 14 15 16 16 16 16 16 16 18 18
43 45 47 48 48 48 50 51 51 52 53 54 55 55 55 54 52 51 50 49 48 47 45 43 42 40 38 37 35 35 35 36 36 36 34 33 32 32 32 30 28 26 25 23 22 21 21 21 20 20 18 18 19 19 19 19 18 18 18 18 18 17 17 16 15 15 14 14 14 14 14 14 13 13 14 14 15 16 17 17 17 16 16 18 19
46 48 49 48 48 49 50 52 53 54 55 55 55 54 54 53 52 51 51 50 49 48 46 44 43 42 40 39 37 36 35 36 36 36 34 33 32 32 32 31 29 28 26 25 24 23 22 22 21 20 20 19 20 20 20 20 19 19 19 19 19 18 18 17 17 16 15 15 15 15 15 14 13 14 14 14 15 16 17 17 17 17 17 19 19
45 47 47 46 47 49 50 52 53 53 54 54 54 53 53 53 52 51 50 49 48 48 47 46 44 43 41 40 38 37 36 36 36 37 36 34 33 31 31 31 30 29 28 27 26 24 23 23 22 21 20 20 21 22 21 21 21 21 20 20 20 19 19 18 17 17 16 16 16 16 16 15 14 14 14 15 15 16 16 17 17 17 18 20 19
44 46 46 46 48 50 51 52 52 52 52 52 52 52 52 52 52 52 50 48 48 48 47 46 45 44 43 41 40 38 37 36 36 37 37 36 34 32 31 31 30 30 30 29 28 26 25 24 22 22 20 20 21 21 22 22 22 22 21 21 21 21 21 20 19 18 18 17 17 17 16 16 15 14 15 15 15 16 16 17 18 18 19 20 20
46 47 47 48 49 51 52 51 50 49 48 49 50 52 52 52 51 52 51 49 49 48 47 47 46 44 44 42 41 39 37 36 36 36 37 36 35 34 33 32 31 30 30 30 30 28 27 26 24 23 22 20 20 20 21 22 22 22 21 21 21 21 21 21 20 20 19 19 19 18 18 17 16 16 16 16 16 16 17 17 18 19 20 21 21
47 49 50 50 51 51 51 49 47 46 47 49 51 52 52 52 52 51 51 50 49 48 48 47 45 44 43 42 41 39 38 36 36 36 36 36 36 35 34 33 33 32 31 31 31 30 29 28 27 26 24 22 21 20 21 21 22 22 21 21 20 20 21 21 21 21 20 20 20 20 19 17 17 17 17 17 17 17 18 18 19 20 21 22 23
47 49 50 51 52 51 49 48 47 48 50 50 51 51 52 52 52 51 51 51 49 48 47 46 45 44 42 41 41 39 38 36 36 35 35 35 35 34 34 34 34 33 31 31 30 30 30 29 29 28 27 25 23 22 22 22 22 22 22 21 21 21 21 22 22 21 21 21 21 21 19 18 18 19 18 18 18 18 19 20 20 21 22 22 23
45 46 47 49 49 46 45 46 48 49 50 50 50 51 52 52 52 52 52 51 50 48 47 46 46 44 43 42 41 40 38 37 36 35 34 33 33 33 33 34 34 33 32 31 30 30 30 30 29 29 28 27 26 25 24 24 23 24 23 23 22 22 23 23 23 22 22 22 22 22 20 20 20 20 19 19 19 20 20 21 22 22 23 24 24
43 44 45 44 42 41 43 46 48 50 50 50 51 51 51 52 52 52 52 51 50 48 48 47 46 45 45 44 42 41 40 38 36 35 33 31 31 32 32 33 33 33 32 32 31 31 30 30 29 29 29 28 27 26 25 25 24 24 24 23 23 23 23 24 24 24 23 24 24 23 22 21 22 22 21 20 20 21 22 23 23 23 24 25 25
43 43 43 42 42 43 45 47 48 50 51 50 51 51 51 51 52 52 51 51 50 49 48 48 47 47 46 45 44 42 40 38 37 35 33 32 31 31 32 32 32 32 32 32 32 32 31 30 29 28 28 28 27 27 27 26 25 25 24 24 23 23 23 24 24 25 25 25 25 25 24 24 24 24 23 22 22 22 23 23 24 24 24 25 26
44 43 42 42 43 45 47 48 49 51 51 51 51 51 51 51 51 51 51 50 49 49 48 48 48 47 47 46 44 43 41 39 37 34 32 31 31 31 31 31 31 32 32 32 32 32 32 31 30 29 28 28 28 28 28 27 27 26 26 26 25 25 24 25 25 25 25 26 26 26 25 25 26 26 25 24 24 24 25 25 25 26 26 27 28
42 41 41 42 44 46 47 48 50 50 50 50 50 50 50 50 50 50 49 49 48 48 48 48 48 48 47 46 44 42 41 38 36 34 32 31 30 30 30 30 31 32 32 32 32 32 32 31 31 30 30 29 30 30 29 29 28 28 27 27 26 26 26 26 26 26 26 26 26 26 27 26 26 26 26 26 26 26 27 28 28 28 28 29 30
39 39 41 44 46 47 48 49 50 50 50 49 48 48 48 48 49 48 48 48 48 47 47 47 48 48 47 45 44 42 41 39 36 34 32 31 30 29 29 30 31 32 32 32 32 32 32 32 33 32 32 32 32 31 31 30 29 29 28 28 27 27 27 27 28 28 27 27 27 27 28 27 27 27 26 26 27 27 28 29 29 29 30 31 31
39 40 43 46 47 48 49 49 49 50 49 49 48 48 48 48 48 48 47 47 47 46 46 47 47 47 45 44 44 43 41 39 37 35 33 32 30 29 29 30 30 31 32 32 32 32 33 33 33 33 33 34 33 32 31 31 30 29 29 28 28 28 28 29 29 29 29 29 29 29 29 28 28 27 27 27 27 27 28 29 29 29 30 31 32
39 42 44 46 46 47 47 47 49 50 50 50 49 49 49 48 47 47 47 46 46 45 45 46 46 45 44 44 43 43 41 40 38 36 34 33 32 30 30 29 30 31 31 32 32 33 33 34 34 34 34 35 34 32 31 31 30 30 29 29 29 29 29 30 30 30 30 30 30 30 29 29 28 28 28 27 27 27 28 29 28 28 29 30 31
40 43 44 45 44 45 46 47 49 50 50 50 49 48 47 47 47 47 46 45 44 44 44 44 44 44 43 43 43 43 42 40 38 36 35 33 33 32 31 30 30 30 31 32 33 33 33 34 34 34 35 35 34 32 31 31 31 30 30 30 30 30 30 31 31 31 31 31 31 31 30 29 29 28 28 27 27 27 27 28 28 28 28 29 30
42 43 44 44 44 45 48 49 49 50 51 50 50 49 48 48 47 45 44 43 43 43 43 43 43 43 43 43 42 42 41 40 38 36 34 33 34 34 33 32 30 30 30 32 33 33 33 34 34 35 35 35 34 33 32 32 31 30 30 30 31 31 32 32 32 33 33 32 32 31 30 30 29 28 28 27 26 26 25 26 28 28 29 29 30
37 41 43 44 44 45 47 47 48 49 49 49 48 47 47 45 44 43 42 42 42 42 42 42 42 42 42 41 41 41 40 39 37 35 34 34 34 34 33 32 31 30 31 32 32 33 33 34 34 34 35 35 34 33 32 32 31 31 31 31 32 32 33 33 33 33 33 32 32 31 31 30 28 28 28 27 26 26 25 27 28 29 30 30 30
31 36 40 41 42 43 44 45 46 46 45 45 45 44 43 42 41 41 41 41 41 40 41 40 40 41 41 41 41 40 39 38 37 36 35 35 35 34 33 32 32 32 32 31 31 32 32 32 33 33 34 35 34 33 32 32 32 31 31 32 32 33 33 33 33 33 32 32 31 31 31 29 28 28 27 26 26 25 26 28 29 30 31 31 31
29 33 37 39 42 43 43 43 44 44 43 43 43 43 42 41 40 40 39 39 40 39 39 39 39 40 40 40 39 39 38 37 36 36 36 36 35 34 33 32 32 32 32 31 31 32 31 31 31 32 33 34 34 32 32 32 31 31 31 32 33 33 33 33 32 31 31 30 30 30 30 29 28 28 27 26 25 26 27 29 31 32 32 32 33
25 29 32 35 37 39 40 41 41 42 41 41 42 41 40 39 38 39 38 38 38 38 38 38 38 37 37 37 36 36 35 35 35 36 36 35 33 32 31 31 32 32 31 31 31 31 30 30 31 31 32 32 32 30 30 30 29 29 30 31 31 31 31 31 30 29 29 29 28 28 28 28 28 28 26 25 25 27 29 31 32 33 33 34 34
21 24 27 29 31 33 35 36 37 38 38 38 39 39 38 37 37 37 37 37 37 36 36 36 35 34 34 33 33 32 32 32 33 33 32 31 30 30 29 29 30 30 29 29 28 28 28 28 28 29 29 30 29 27 27 27 27 27 28 29 29 29 29 30 29 28 27 27 27 26 26 27 28 26 25 25 25 27 29 30 31 33 35 35 33
20 22 23 25 27 29 30 32 33 34 35 35 36 36 35 35 35 35 36 36 36 34 33 32 31 30 30 31 30 30 30 30 30 30 28 28 27 27 27 28 29 29 27 27 27 27 27 26 26 26 26 27 26 23 22 23 23 23 24 25 25 26 27 28 27 26 25 25 25 24 24 24 25 24 23 23 23 25 28 28 29 32 36 35 30
21 23 23 23 25 27 28 29 31 31 32 32 32 33 33 33 33 33 34 34 33 31 28 27 27 28 29 30 30 30 30 30 29 28 27 26 26 26 27 29 29 28 27 28 28 29 28 26 25 25 24 25 24 20 18 19 19 19 20 21 23 24 25 24 24 24 23 23 23 23 22 21 20 20 19 19 20 23 25 26 27 32 34 32 29
22 24 25 25 26 26 27 27 27 27 28 28 28 29 30 31 31 31 32 31 29 27 26 25 26 27 29 30 30 30 29 29 28 27 27 27 27 28 28 29 28 28 28 28 29 29 28 27 26 25 25 24 24 21 18 18 18 18 18 19 21 22 21 21 22 23 23 23 22 21 19 17 16 16 16 17 19 21 23 25 26 28 30 29 29
24 25 26 27 28 27 26 26 25 25 26 26 26 27 28 28 29 29 28 27 25 25 25 25 25 27 29 30 30 30 29 29 28 29 29 29 29 29 29 29 30 30 30 29 29 29 29 28 27 26 26 24 24 22 20 19 18 18 18 18 20 20 19 19 22 23 23 22 20 17 16 14 15 16 16 17 19 20 22 23 23 24 27 28 28
26 26 26 27 28 27 26 24 23 24 25 25 26 27 27 27 28 27 27 26 25 26 26 26 27 28 28 29 30 29 29 29 29 30 30 29 29 29 30 31 31 32 32 31 31 30 31 30 28 27 26 24 23 22 21 20 19 18 18 18 18 18 17 19 21 22 21 19 17 16 16 16 17 18 18 19 20 21 22 24 24 24 25 26 26
24 24 25 27 29 29 27 25 23 23 24 26 27 28 28 28 28 26 26 25 25 25 26 26 27 28 28 29 29 28 29 29 29 30 30 30 30 31 31 31 32 33 33 33 32 32 32 32 30 28 25 23 22 21 20 20 19 18 18 17 17 17 16 17 19 19 18 17 17 18 18 17 18 19 20 21 22 23 23 25 25 24 22 22 24
22 20 20 23 26 28 28 28 27 26 26 27 28 29 29 28 27 25 23 23 22 22 22 23 23 24 24 24 25 25 26 26 27 29 30 30 30 30 31 31 31 32 33 33 32 32 32 32 30 29 26 23 21 20 20 20 19 18 17 16 16 15 14 15 17 17 16 16 18 18 17 18 19 20 21 22 23 24 25 25 24 23 22 22 23
23 21 18 18 20 23 25 27 27 26 26 27 27 27 27 27 26 25 23 22 22 22 22 22 22 21 21 21 21 21 21 22 24 27 29 28 28 29 29 29 30 31 31 31 30 31 32 32 31 29 26 23 21 20 19 18 18 17 16 14 14 13 13 14 16 16 16 17 18 18 19 20 21 21 22 23 23 24 24 23 22 21 22 22 23
23 23 21 19 19 21 22 23 23 22 22 23 24 25 25 24 24 24 23 23 22 22 23 23 22 22 22 22 22 22 21 21 22 25 27 28 28 29 29 29 29 29 28 27 27 27 28 29 29 27 25 23 21 20 19 17 16 14 13 13 13 13 13 15 16 16 16 17 18 19 20 21 21 21 21 21 21 21 20 20 20 21 22 23 24
21 22 22 22 22 22 22 22 21 20 19 19 19 19 18 18 18 19 19 19 19 20 20 20 21 21 21 22 22 23 23 22 23 24 26 27 28 29 30 29 27 26 25 24 23 22 22 22 21 21 20 20 20 19 17 15 12 12 12 12 13 13 14 14 15 14 15 16 18 20 22 21 21 19 18 17 17 17 19 20 21 21 21 21 21
19 19 20 20 21 20 21 21 21 20 20 20 20 18 16 13 12 11 11 12 13 14 15 15 16 16 17 18 20 21 22 23 24 24 25 26 27 28 29 27 25 24 23 21 20 18 16 15 15 15 15 15 15 13 12 11 10 11 12 13 14 14 14 14 14 14 15 17 18 20 20 18 16 15 14 14 15 17 18 19 18 18 17 17 18
16 17 17 17 18 17 17 18 19 19 19 19 20 19 18 16 13 11 8 7 8 9 11 11 11 12 13 15 17 18 19 20 21 21 22 23 24 25 25 25 23 22 20 19 17 14 12 10 11 12 11 11 11 10 10 11 12 13 13 14 14 14 14 14 14 14 15 15 16 15 14 13 12 12 13 14 15 16 15 15 15 15 15 16 17
14 13 14 15 15 14 14 15 15 16 16 17 17 17 16 15 14 12 10 7 7 8 9 10 9 10 11 12 13 15 16 16 16 16 16 17 19 21 21 21 20 19 18 16 14 12 10 9 10 10 10 11 12 13 14 14 14 14 14 14 15 16 15 14 13 12 12 13 12 11 11 11 11 12 13 13 13 13 12 12 13 13 14 15 15
Wind_Direction
205 203 204 206 208 210 211 212 213 214 216 217 217 217 216 216 216 215 216 216 216 217 218 218 217 216 215 216 217 217 215 214 214 216 217 214 211 211 213 213 214 218 219 220 226 231 229 228 234 241 239 238 238 233 232 231 215 196 198 201 205 210 205 201 201 203 212 211 202 186 159 123 109 116 123 128 123 112 101 85 67 51 36 29 32
203 203 204 206 208 209 210 212 213 215 216 217 218 219 219 218 218 217 217 218 218 218 219 220 219 217 217 217 218 219 218 218 217 217 218 217 213 214 215 219 221 223 227 230 235 238 234 229 232 238 241 242 242 238 235 232 220 208 210 208 211 223 226 223 222 227 238 245 245 222 200 187 139 135 143 146 138 125 112 90 66 53 39 34 40
202 204 204 205 207 209 210 212 214 216 217 218 219 219 220 220 220 219 219 219 220 220 221 222 222 221 220 220 220 221 222 223 222 220 220 219 217 217 218 222 226 228 232 237 240 239 235 231 231 235 240 243 245 243 244 243 232 218 215 215 217 227 232 231 232 238 245 240 227 218 213 228 227 164 164 169 168 162 140 109 70 55 41 35 33
202 203 204 205 206 208 210 212 213 215 216 218 218 218 220 220 220 220 220 220 222 222 223 223 224 225 224 224 224 223 223 225 224 223 221 221 221 221 221 223 227 230 232 236 240 240 237 234 231 233 238 243 246 247 251 258 251 232 225 226 227 231 232 230 233 236 234 227 220 217 225 245 254 223 194 193 191 190 181 170 163 53 24 22 18
202 203 204 204 206 208 210 212 212 214 216 217 217 217 217 219 219 219 220 221 222 224 225 225 225 226 225 225 225 224 223 224 224 223 222 223 222 221 222 224 227 229 227 231 238 241 239 236 234 234 237 243 249 251 255 259 254 240 231 232 232 232 233 229 230 232 228 233 242 240 246 262 277 274 233 219 211 208 212 223 230 255 315 339 360
204 204 204 205 206 207 209 211 212 214 216 216 216 216 216 217 218 219 220 221 223 224 225 225 226 226 225 223 223 222 222 224 225 224 224 225 224 223 224 226 228 227 224 224 231 239 238 237 237 237 239 244 249 252 255 255 251 242 232 232 232 230 232 229 228 232 232 238 249 249 255 273 297 303 273 254 250 236 230 236 240 252 273 291 344
205 206 205 205 206 207 208 211 213 214 216 216 216 217 216 217 217 218 220 222 223 223 224 225 226 227 226 225 225 224 224 225 227 227 227 228 229 228 228 229 229 227 225 223 224 231 234 235 239 241 241 242 246 249 251 254 252 245 236 230 229 227 229 230 230 234 235 241 250 247 249 260 276 299 295 279 274 271 265 257 250 252 259 265 259
204 205 205 205 206 207 209 211 213 214 215 215 216 217 217 218 219 219 220 222 223 223 223 224 225 227 226 226 226 227 227 228 228 228 228 230 231 232 232 233 232 229 226 224 222 225 229 233 239 244 244 242 243 246 247 250 249 247 242 234 232 230 230 231 231 233 237 245 256 254 249 251 259 282 296 287 279 282 286 276 268 269 266 264 248
206 205 206 207 207 209 211 212 213 214 214 215 216 217 218 219 220 220 221 222 223 223 223 223 224 226 227 227 227 227 228 229 230 230 230 231 232 233 235 235 234 230 227 225 222 224 227 232 238 243 245 243 244 246 245 245 245 247 247 241 239 238 236 236 234 236 242 245 251 256 254 250 254 269 280 281 273 271 277 280 285 290 286 283 268
209 208 208 209 209 210 211 212 212 213 214 216 216 217 218 219 220 221 222 223 224 224 225 225 225 226 227 229 228 227 227 229 230 231 232 233 234 235 236 236 234 230 227 226 224 225 227 230 235 239 243 245 246 246 244 244 246 247 249 247 244 242 241 243 241 241 242 241 241 248 251 250 256 265 272 278 274 265 267 277 287 294 298 297 284
210 211 210 211 211 210 210 212 212 213 214 214 215 217 218 219 219 221 222 223 224 225 226 226 226 227 228 229 229 228 227 228 229 230 231 233 234 235 235 236 235 232 229 228 227 227 228 229 232 236 240 245 246 247 245 246 249 249 250 249 247 245 244 245 246 243 242 244 245 245 245 249 259 267 272 278 280 275 274 284 293 297 299 297 281
210 211 210 209 209 209 210 212 213 212 212 213 214 215 217 219 220 221 222 222 224 226 226 227 228 228 228 229 230 230 230 229 229 230 231 232 232 234 235 235 235 234 231 230 229 227 227 228 230 232 236 242 246 248 248 247 250 250 250 250 248 247 244 245 247 244 243 246 250 251 247 248 256 265 271 271 275 281 282 286 293 293 293 295 291
210 210 209 208 208 210 210 211 212 212 212 212 213 214 216 218 219 220 222 222 223 225 226 227 228 228 228 228 230 231 232 232 232 232 233 233 233 234 235 235 234 233 231 230 229 226 226 227 228 231 235 242 246 248 249 248 249 251 252 253 252 249 246 247 249 249 248 247 250 253 251 251 255 262 271 268 264 271 277 281 286 287 288 292 292
210 209 208 208 210 211 210 210 211 212 212 212 213 214 215 217 219 220 222 223 223 225 226 227 227 227 228 228 230 231 232 234 234 234 234 234 234 235 236 236 235 234 233 232 232 230 229 229 230 234 238 242 245 247 249 248 249 251 252 254 254 252 250 250 252 253 253 252 251 251 252 255 259 263 270 268 259 258 267 277 284 287 288 288 287
210 210 209 210 211 212 211 211 212 212 212 212 212 213 214 216 218 220 222 222 223 224 225 226 226 226 227 228 231 232 233 235 236 235 235 234 235 235 237 238 237 237 237 237 237 236 236 236 236 238 240 243 244 245 247 247 248 250 253 255 255 254 252 253 255 255 256 256 254 255 256 258 260 263 268 269 263 258 263 273 281 284 285 284 283
210 209 210 212 212 212 211 211 212 212 212 212 213 213 214 216 218 220 222 222 223 224 225 226 227 226 227 228 230 232 234 236 237 237 236 235 235 235 237 239 239 240 240 240 240 240 242 243 243 244 244 244 243 243 245 246 248 249 252 256 257 256 256 257 259 259 257 258 257 258 260 261 263 263 264 266 266 266 268 271 274 278 280 280 281
209 210 212 212 211 212 212 212 213 212 212 213 213 214 214 216 217 219 221 222 223 225 226 227 227 227 227 228 230 232 234 236 237 237 236 235 235 236 237 239 240 241 241 241 242 243 244 246 248 250 249 246 243 242 243 245 247 248 250 254 256 258 258 259 261 262 261 259 258 259 261 263 265 265 264 263 264 267 271 272 273 271 270 273 278
210 212 213 212 211 212 212 213 214 214 214 214 214 214 214 216 218 219 220 221 223 225 226 227 228 227 228 228 229 232 234 235 236 237 237 236 236 236 237 237 238 239 240 241 243 243 245 246 248 250 250 247 243 241 242 244 246 248 250 252 255 257 258 259 260 262 263 262 261 261 261 263 265 267 267 266 264 266 269 272 272 267 261 262 269
208 211 212 211 211 213 213 214 215 214 215 214 214 213 214 215 218 220 222 224 225 225 226 227 228 228 228 229 230 231 233 235 236 237 237 237 237 237 237 237 237 238 239 240 241 241 243 245 245 246 246 245 242 241 241 242 244 248 250 252 253 255 258 259 260 262 264 264 264 263 263 264 265 267 269 270 269 269 270 271 271 267 261 259 262
206 210 211 211 212 214 214 214 215 214 214 213 212 212 214 215 216 219 221 223 224 225 226 226 227 228 229 229 230 231 233 234 235 236 237 237 238 238 238 238 238 238 239 239 240 240 241 242 242 242 242 242 241 241 241 241 242 246 249 252 254 255 257 260 261 262 263 264 265 265 265 266 266 266 268 270 272 273 272 270 268 267 263 260 260
206 208 210 212 214 215 215 215 214 213 212 211 211 212 214 214 215 217 219 221 223 224 225 226 227 227 229 230 230 231 232 234 235 236 237 238 239 240 240 241 241 241 240 240 240 240 240 241 241 240 240 240 241 242 243 243 243 245 248 251 254 255 257 259 261 263 263 264 265 266 266 267 267 267 267 269 270 272 272 270 267 267 265 263 262
207 209 210 212 214 214 214 212 210 210 210 211 212 212 212 214 215 216 218 220 222 224 225 226 227 228 229 230 231 232 232 234 235 236 237 238 240 241 242 243 244 242 242 241 241 241 241 241 241 240 239 240 241 243 244 244 244 245 247 250 253 256 258 260 261 263 265 266 266 267 268 267 266 267 267 268 269 270 270 270 269 269 270 269 267
211 210 210 211 213 213 211 208 207 209 211 211 211 211 212 213 214 215 216 219 222 223 225 226 227 229 230 231 231 232 233 234 235 237 238 239 240 241 243 243 243 243 243 242 241 241 241 241 241 240 240 240 241 243 244 245 245 246 247 250 253 256 259 261 263 265 267 268 268 269 269 268 267 267 267 267 268 269 269 270 270 271 273 274 273
213 212 211 212 212 210 206 205 206 207 210 210 210 211 211 212 214 215 217 219 221 223 224 226 227 229 230 230 231 232 233 234 235 237 238 239 240 242 243 243 243 243 242 241 241 242 241 241 240 240 239 240 240 242 244 245 247 249 250 252 254 256 258 261 264 267 269 270 270 269 269 270 270 269 268 267 266 267 267 268 269 269 270 272 273
214 212 211 210 208 206 205 204 204 206 208 209 209 210 210 211 213 215 217 219 220 221 223 225 227 228 229 229 230 231 232 233 234 236 237 239 240 242 243 243 243 243 241 241 241 242 243 242 240 239 239 239 239 241 243 245 247 250 252 254 255 256 258 261 263 266 268 269 270 270 270 271 271 271 270 269 268 269 270 270 271 272 273 274 275
215 212 209 207 205 205 205 204 204 205 207 208 208 208 210 211 213 216 217 218 219 220 222 224 226 227 228 229 230 231 232 233 234 235 237 238 240 241 242 243 243 243 243 242 242 243 244 243 240 239 239 240 240 242 243 245 247 249 252 254 256 258 260 262 264 266 268 270 270 270 270 270 270 271 271 271 272 273 273 273 274 275 277 278 278
217 212 206 204 203 204 205 204 204 205 206 208 208 208 209 210 212 215 216 217 218 218 220 222 225 227 228 230 230 231 232 233 233 235 236 238 239 241 242 243 244 245 244 244 244 244 245 244 242 241 240 240 242 243 245 246 247 249 251 253 256 260 262 264 266 267 270 271 271 271 272 271 271 272 273 274 274 275 275 276 276 277 279 280 280
215 210 204 202 202 204 204 203 203 204 205 207 207 208 209 210 212 213 214 216 217 218 219 222 224 226 228 230 231 232 233 233 234 234 235 236 237 239 241 243 245 245 245 244 245 245 246 246 246 244 243 244 245 246 246 247 248 249 251 254 256 259 262 265 267 269 271 272 272 272 272 272 272 273 274 275 276 277 278 277 277 279 280 281 281
210 206 203 202 202 202 203 202 201 202 203 204 205 206 207 209 210 212 213 215 216 218 219 221 223 225 228 230 231 232 233 233 234 234 234 234 235 237 239 242 244 245 244 244 245 246 247 247 247 247 247 247 248 248 247 248 249 250 252 254 257 260 263 266 269 271 272 273 274 274 275 275 276 276 276 277 277 278 279 278 279 281 282 283 283
205 203 202 203 203 203 202 200 199 200 202 203 203 205 206 208 209 211 213 215 216 218 220 221 223 226 229 230 230 231 232 233 233 234 234 233 234 236 238 240 243 244 244 244 244 245 245 246 247 247 248 249 249 248 248 249 250 251 253 256 258 261 263 266 269 271 272 273 275 276 278 279 279 280 279 280 280 280 280 280 281 283 285 285 285
202 202 202 204 203 201 199 198 197 200 202 203 204 205 206 207 208 210 213 215 216 218 220 222 225 227 229 229 230 231 232 232 233 234 234 234 234 235 237 240 243 244 244 245 245 244 244 245 246 247 248 249 249 248 248 250 252 253 255 258 259 262 264 266 268 270 271 273 275 277 279 281 282 282 283 284 284 283 283 283 283 285 285 285 285
201 200 201 202 200 198 198 198 198 200 202 203 203 203 204 206 208 210 213 213 215 218 220 223 226 227 228 229 229 230 231 232 233 234 235 236 236 236 238 239 242 243 244 245 245 244 244 244 246 247 247 248 248 248 249 250 252 254 256 258 261 263 265 267 269 271 273 275 277 278 280 281 282 284 285 287 287 286 286 286 286 287 287 285 285
200 199 200 200 199 199 200 200 199 201 204 205 204 204 207 208 209 209 210 212 214 217 220 222 225 226 228 229 230 231 232 233 234 235 236 237 237 238 238 239 241 243 244 245 245 244 244 245 246 247 247 248 248 248 249 250 252 253 255 258 260 263 266 268 270 273 275 276 278 280 281 282 283 285 286 287 288 288 287 286 287 288 287 286 287
200 199 199 199 199 200 201 201 201 203 205 205 204 206 207 206 205 207 209 212 213 216 218 222 225 227 228 230 231 232 234 235 235 236 237 238 238 239 239 239 241 242 243 245 245 244 244 245 246 248 249 250 250 249 250 251 252 253 255 258 261 263 266 269 271 273 275 277 278 280 282 283 284 285 286 287 289 289 289 288 288 288 289 290 290
200 199 198 198 199 199 199 200 201 202 202 202 202 204 204 203 205 207 210 212 214 216 220 223 226 228 229 231 232 233 235 236 236 237 238 239 239 240 240 241 242 243 244 244 245 246 246 246 247 248 250 251 251 250 251 252 253 254 257 259 262 264 266 268 270 272 274 276 278 280 282 283 285 286 287 288 289 290 291 290 289 289 291 293 294
204 201 199 199 199 200 199 198 199 200 201 201 202 203 204 204 206 209 211 213 215 218 222 225 227 228 229 231 232 233 235 236 237 238 239 239 240 241 242 243 243 245 246 246 247 247 247 247 248 249 251 251 251 251 253 253 254 256 259 260 262 264 266 267 269 271 273 275 278 279 281 283 285 286 288 289 291 291 290 289 288 289 292 294 294
206 203 202 200 199 199 198 197 198 200 201 202 202 204 204 204 206 208 211 213 216 220 224 226 228 229 230 232 233 234 235 236 237 238 239 240 241 242 243 243 244 245 245 246 247 247 247 247 248 249 250 250 250 251 252 254 255 257 259 261 263 265 267 268 270 272 274 275 277 279 281 284 285 287 289 291 292 291 290 289 290 291 293 294 296
195 198 199 199 198 198 198 197 199 200 201 203 203 204 205 204 205 208 210 213 217 221 225 227 229 231 232 232 233 233 234 235 236 237 238 239 241 241 242 243 244 245 246 246 247 248 248 249 249 249 250 251 251 251 252 254 255 257 259 261 263 266 267 268 270 272 274 276 278 280 283 284 285 289 292 293 293 291 289 289 291 292 293 293 294
171 184 191 194 196 197 197 198 200 200 201 203 204 205 206 206 207 209 210 213 218 222 226 228 230 232 233 233 234 233 234 235 235 237 238 239 239 240 241 243 244 245 246 247 249 250 250 250 251 252 253 255 256 255 253 254 255 257 259 262 264 266 267 269 272 274 276 279 281 283 285 286 288 291 293 294 293 291 289 290 291 291 290 290 291
146 163 175 182 188 191 192 196 200 200 201 202 204 206 208 209 209 210 212 215 220 223 226 228 231 233 234 235 235 235 236 237 237 239 240 240 241 242 242 244 245 246 247 249 249 251 252 253 254 256 256 258 260 258 256 256 256 257 259 262 264 265 268 272 275 278 280 282 284 287 289 290 291 293 294 294 293 291 289 289 288 286 287 289 294
125 144 158 167 175 182 187 191 195 197 197 199 201 204 207 209 210 211 215 219 223 225 227 230 232 235 236 237 238 239 240 241 242 244 245 244 245 245 245 245 246 247 248 249 250 252 254 255 256 258 259 260 261 260 259 258 259 259 260 263 265 267 271 277 280 281 282 284 287 290 292 293 293 292 291 289 288 288 287 287 287 285 287 294 299
111 128 142 153 161 169 176 181 186 189 192 193 195 197 201 204 206 210 215 218 221 224 227 230 232 235 238 239 241 242 244 245 247 247 247 248 249 249 249 249 249 249 250 251 252 254 255 257 258 259 260 261 262 263 262 261 261 262 262 264 267 270 275 279 280 281 282 285 289 291 291 290 288 286 284 283 284 286 287 287 287 283 285 293 299
100 112 125 138 146 152 159 166 173 180 183 187 189 190 192 195 198 204 209 212 216 220 224 227 231 234 237 240 242 244 245 246 248 247 248 249 250 250 250 250 250 250 251 252 253 254 255 257 259 260 261 262 264 265 264 263 263 264 264 265 267 271 276 277 278 280 283 287 290 289 287 285 282 282 283 284 285 287 287 287 287 285 285 292 300
87 98 112 125 133 137 140 145 153 162 171 179 184 184 185 187 191 195 201 206 211 217 222 227 231 234 237 239 241 244 245 246 247 247 248 248 249 249 250 251 251 251 252 253 254 255 256 257 259 261 262 264 265 266 267 266 266 266 266 266 268 270 273 275 276 279 283 285 283 281 279 278 278 279 282 284 286 288 287 288 290 291 290 291 294
79 87 100 113 123 128 131 134 138 146 156 168 177 179 177 177 180 183 189 195 201 207 213 219 224 228 231 233 235 237 240 242 244 245 246 246 247 248 249 249 250 251 251 253 255 256 257 258 260 262 263 265 266 267 268 268 268 268 268 267 268 269 269 270 272 275 276 275 272 272 271 271 274 277 279 282 285 287 288 289 290 291 292 292 293
76 80 89 102 114 122 125 127 131 138 146 155 164 169 168 168 171 175 181 188 192 196 200 204 210 214 217 221 224 226 230 234 238 242 244 245 245 246 247 248 249 250 251 253 255 256 257 258 259 262 264 266 267 268 268 269 269 269 267 264 263 263 262 262 264 265 265 265 264 264 265 268 272 275 278 281 284 285 287 289 290 292 294 295 295
74 78 87 96 104 110 114 116 119 126 136 145 154 161 163 165 170 177 184 190 194 197 201 205 210 214 215 217 218 219 221 225 230 235 239 241 242 244 244 245 246 248 250 252 253 256 257 259 260 263 265 266 266 266 266 266 265 263 259 255 254 254 253 253 256 258 257 257 258 260 264 267 270 272 274 277 281 283 285 288 291 293 294 295 295
75 77 83 90 96 100 103 106 107 110 116 124 131 140 148 157 167 177 185 191 196 201 203 206 212 216 217 217 217 217 217 219 223 228 232 234 236 239 241 242 244 246 249 251 253 255 258 260 263 266 267 268 268 268 267 265 260 252 248 246 245 245 244 243 246 249 250 250 252 255 259 260 262 265 270 274 278 283 287 290 292 294 295 296 297
75 76 77 82 88 93 97 98 98 100 103 104 105 107 112 123 139 156 172 185 194 201 205 206 207 209 212 215 216 216 216 218 222 225 226 227 228 231 235 238 241 244 247 250 253 255 258 262 264 264 264 264 265 265 261 255 248 242 240 240 238 236 236 239 243 247 250 251 252 253 255 256 259 265 272 277 282 287 290 292 293 295 298 300 302
68 74 76 78 79 81 87 92 93 95 97 97 97 97 97 99 104 114 133 159 178 190 200 204 202 198 200 205 209 211 214 217 221 223 223 224 224 227 230 233 236 239 242 245 248 249 248 249 251 250 250 250 249 246 241 239 238 236 233 233 232 232 235 240 246 250 252 254 256 256 255 258 265 273 278 281 284 286 288 290 294 298 302 305 306
53 64 72 74 72 71 75 80 84 88 91 91 92 92 91 91 92 94 102 123 148 168 181 188 188 186 188 193 200 205 209 213 216 216 216 218 222 225 226 228 230 232 234 237 238 235 228 226 230 234 234 234 237 240 239 236 235 235 234 233 233 233 232 233 237 244 248 251 254 256 261 268 274 276 278 280 282 282 285 290 295 301 305 308 312
Height
1506 1511 1513 1516 1519 1522 1525 1527 1530 1532 1534 1537 1539 1542 1544 1547 1550 1552 1555 1557 1559 1562 1563 1565 1567 1569 1571 1572 1574 1576 1578 1580 1581 1583 1584 1585 1587 1588 1589 1590 1591 1592 1594 1595 1596 1597 1598 1599 1599 1600 1601 1601 1602 1603 1603 1603 1604 1604 1605 1605 1605 1605 1606 1606 1607 1607 1607 1607 1607 1608 1608 1608 1608 1608 1608 1608 1608 1609 1609 1609 1609 1609 1609 1609 1609
1507 1509 1512 1514 1517 1519 1522 1525 1526 1529 1531 1534 1536 1539 1542 1544 1547 1550 1552 1555 1556 1559 1561 1563 1565 1567 1569 1570 1573 1575 1577 1578 1580 1581 1583 1585 1586 1587 1588 1589 1591 1592 1593 1594 1595 1596 1597 1598 1599 1600 1601 1601 1602 1602 1603 1603 1603 1604 1605 1605 1605 1606 1606 1606 1607 1607 1607 1607 1608 1608 1608 1608 1608 1608 1608 1608 1608 1609 1609 1609 1610 1610 1610 1610 1609
1503 1505 1508 1511 1514 1517 1519 1521 1523 1526 1528 1531 1534 1536 1539 1541 1544 1547 1550 1552 1554 1557 1559 1561 1563 1566 1568 1570 1572 1574 1576 1577 1579 1581 1583 1584 1585 1586 1587 1589 1590 1591 1592 1593 1594 1595 1597 1598 1599 1600 1600 1601 1601 1602 1602 1603 1603 1604 1604 1605 1606 1606 1606 1606 1607 1607 1608 1608 1608 1608 1608 1608 1608 1608 1608 1609 1609 1609 1609 1609 1610 1610 1610 1610 1610
1498 1501 1504 1507 1511 1513 1515 1517 1520 1523 1526 1528 1530 1533 1535 1538 1541 1544 1547 1549 1552 1554 1557 1560 1563 1565 1568 1570 1572 1574 1575 1577 1578 1580 1581 1583 1584 1585 1586 1587 1589 1590 1591 1593 1594 1595 1596 1597 1598 1599 1600 1600 1601 1601 1602 1602 1603 1603 1604 1605 1605 1606 1606 1606 1607 1607 1608 1608 1608 1609 1609 1608 1608 1609 1609 1609 1609 1609 1609 1609 1610 1610 1610 1610 1610
1494 1497 1500 1503 1505 1507 1510 1514 1517 1520 1521 1523 1526 1529 1532 1535 1538 1541 1544 1547 1549 1552 1555 1558 1561 1563 1566 1568 1570 1572 1573 1575 1576 1578 1579 1581 1582 1583 1585 1587 1588 1589 1591 1592 1593 1594 1595 1596 1597 1598 1599 1600 1600 1601 1601 1602 1603 1603 1604 1604 1605 1605 1606 1606 1607 1607 1608 1608 1608 1609 1609 1609 1608 1609 1609 1609 1609 1609 1609 1609 1609 1610 1610 1610 1610
1490 1492 1495 1498 1501 1505 1508 1511 1514 1515 1516 1519 1523 1526 1530 1533 1536 1539 1542 1544 1547 1550 1553 1556 1558 1560 1563 1565 1567 1568 1570 1572 1574 1576 1577 1579 1580 1582 1584 1586 1587 1589 1590 1591 1592 1594 1595 1596 1597 1597 1598 1599 1599 1600 1601 1602 1602 1603 1603 1604 1604 1605 1605 1606 1606 1607 1607 1608 1608 1608 1609 1609 1609 1609 1609 1609 1609 1609 1609 1609 1609 1609 1609 1609 1609
1487 1489 1492 1496 1499 1503 1505 1507 1508 1509 1512 1517 1521 1524 1527 1530 1533 1536 1539 1542 1545 1548 1550 1553 1555 1558 1560 1562 1564 1566 1567 1569 1572 1574 1576 1578 1580 1581 1583 1585 1586 1588 1589 1590 1591 1593 1594 1595 1596 1596 1597 1598 1599 1600 1600 1601 1602 1602 1603 1603 1604 1604 1605 1605 1606 1607 1607 1607 1608 1608 1608 1609 1609 1609 1609 1609 1609 1609 1609 1609 1609 1609 1609 1609 1609
1483 1486 1489 1492 1494 1497 1499 1501 1503 1506 1511 1515 1518 1521 1524 1527 1531 1534 1537 1539 1542 1545 1548 1550 1552 1555 1557 1560 1562 1564 1566 1568 1571 1573 1575 1577 1579 1580 1582 1584 1585 1587 1588 1589 1590 1592 1593 1594 1595 1595 1596 1597 1598 1599 1600 1601 1601 1602 1602 1603 1603 1604 1604 1605 1605 1606 1607 1607 1607 1608 1608 1609 1609 1609 1609 1609 1609 1609 1609 1609 1609 1609 1609 1609 1608
1479 1481 1483 1486 1489 1491 1494 1497 1501 1506 1510 1513 1515 1518 1522 1525 1529 1531 1534 1537 1540 1543 1545 1547 1550 1553 1555 1557 1559 1562 1564 1567 1569 1572 1573 1575 1577 1578 1580 1582 1584 1586 1587 1588 1589 1590 1592 1593 1593 1594 1595 1596 1597 1598 1599 1600 1601 1601 1601 1602 1603 1603 1604 1604 1605 1605 1606 1607 1607 1608 1608 1608 1609 1609 1609 1609 1609 1609 1609 1608 1608 1608 1608 1608 1608
1476 1478 1480 1482 1485 1488 1493 1497 1501 1505 1508 1510 1513 1517 1520 1523 1526 1529 1531 1534 1537 1540 1542 1545 1548 1550 1552 1554 1557 1560 1562 1565 1567 1569 1571 1573 1575 1577 1578 1580 1582 1584 1585 1587 1588 1589 1590 1591 1592 1593 1594 1595 1596 1597 1598 1599 1600 1600 1601 1601 1602 1602 1603 1603 1604 1605 1605 1606 1607 1607 1608 1608 1608 1609 1609 1609 1609 1608 1608 1608 1608 1608 1608 1608 1608
1473 1475 1477 1480 1485 1489 1494 1497 1499 1502 1505 1509 1512 1514 1517 1520 1523 1525 1528 1531 1534 1537 1540 1542 1545 1547 1550 1552 1555 1557 1560 1562 1564 1566 1569 1571 1573 1575 1576 1579 1581 1582 1584 1585 1586 1588 1589 1590 1591 1592 1593 1594 1595 1596 1597 1598 1599 1600 1600 1601 1601 1602 1602 1603 1603 1604 1604 1605 1606 1606 1607 1607 1608 1608 1608 1608 1608 1608 1608 1608 1608 1608 1608 1607 1608
1468 1472 1475 1479 1484 1488 1491 1493 1496 1500 1503 1505 1508 1511 1514 1516 1519 1522 1525 1528 1531 1534 1537 1539 1542 1544 1547 1550 1552 1555 1557 1559 1561 1564 1566 1568 1570 1573 1575 1577 1579 1581 1582 1583 1585 1586 1587 1588 1589 1591 1592 1593 1594 1595 1596 1597 1598 1599 1599 1600 1600 1601 1601 1602 1602 1603 1604 1604 1605 1606 1606 1606 1607 1607 1608 1608 1608 1608 1608 1607 1607 1607 1607 1607 1607
1464 1468 1472 1476 1479 1481 1484 1488 1492 1495 1498 1501 1504 1507 1510 1513 1516 1519 1522 1525 1528 1531 1534 1537 1539 1542 1544 1547 1550 1553 1555 1557 1559 1562 1564 1566 1569 1571 1572 1574 1576 1578 1580 1581 1583 1585 1586 1587 1588 1589 1591 1592 1593 1594 1595 1596 1597 1598 1598 1599 1599 1600 1601 1601 1601 1602 1603 1603 1604 1605 1605 1605 1606 1607 1607 1607 1607 1608 1607 1607 1607 1607 1606 1606 1606
1460 1463 1467 1470 1472 1475 1479 1483 1487 1490 1493 1497 1501 1503 1506 1509 1512 1515 1518 1522 1525 1528 1531 1534 1536 1539 1542 1545 1547 1550 1552 1555 1557 1559 1561 1564 1566 1568 1570 1572 1574 1576 1578 1580 1582 1584 1585 1586 1588 1589 1590 1591 1592 1593 1594 1595 1596 1596 1597 1598 1598 1599 1600 1600 1601 1601 1602 1602 1603 1604 1604 1604 1605 1606 1606 1606 1607 1607 1607 1607 1607 1606 1605 1605 1605
1457 1460 1463 1465 1467 1471 1475 1479 1483 1486 1490 1493 1496 1499 1502 1505 1508 1511 1515 1518 1522 1525 1528 1530 1533 1537 1540 1542 1545 1547 1550 1552 1554 1557 1559 1561 1564 1566 1568 1570 1572 1574 1576 1579 1581 1582 1584 1585 1586 1587 1589 1590 1590 1592 1593 1593 1594 1595 1596 1597 1598 1598 1599 1599 1600 1600 1601 1601 1602 1602 1603 1603 1604 1605 1605 1605 1606 1606 1606 1606 1606 1606 1605 1604 1603
1454 1457 1459 1461 1464 1468 1472 1475 1479 1483 1487 1489 1492 1495 1497 1500 1504 1507 1511 1515 1519 1522 1525 1528 1531 1534 1537 1540 1542 1545 1547 1550 1552 1554 1556 1559 1561 1564 1566 1568 1570 1573 1575 1577 1579 1580 1582 1583 1585 1586 1587 1588 1589 1590 1591 1592 1593 1594 1595 1596 1596 1597 1598 1598 1599 1599 1599 1600 1600 1601 1601 1602 1603 1604 1604 1604 1604 1605 1605 1605 1605 1605 1605 1604 1602
1450 1452 1454 1457 1461 1465 1467 1471 1474 1477 1481 1484 1486 1490 1493 1497 1501 1504 1509 1512 1516 1519 1522 1525 1528 1531 1534 1537 1540 1542 1545 1547 1549 1552 1554 1556 1559 1561 1564 1566 1568 1571 1573 1575 1577 1578 1580 1581 1583 1584 1585 1586 1587 1588 1589 1590 1591 1592 1593 1594 1595 1596 1597 1597 1598 1598 1598 1599 1599 1600 1600 1601 1602 1602 1603 1603 1603 1603 1604 1604 1604 1604 1604 1603 1602
1445 1446 1449 1453 1457 1460 1462 1466 1468 1471 1475 1479 1483 1487 1491 1495 1498 1502 1506 1509 1512 1516 1519 1522 1525 1528 1531 1534 1537 1539 1542 1544 1547 1549 1552 1554 1556 1558 1561 1563 1566 1568 1570 1572 1574 1576 1578 1579 1581 1582 1583 1584 1585 1586 1587 1588 1589 1590 1591 1592 1594 1595 1595 1596 1596 1597 1597 1598 1598 1598 1599 1599 1600 1601 1601 1601 1602 1602 1602 1603 1603 1603 1603 1602 1602
1440 1443 1447 1450 1453 1456 1459 1462 1465 1468 1472 1476 1481 1486 1489 1493 1496 1499 1503 1506 1510 1513 1516 1520 1523 1526 1528 1531 1534 1537 1539 1542 1544 1547 1550 1551 1554 1556 1558 1561 1563 1566 1568 1570 1572 1573 1575 1577 1578 1580 1581 1582 1583 1584 1585 1586 1587 1588 1589 1591 1592 1593 1594 1594 1595 1595 1596 1596 1596 1597 1597 1598 1599 1599 1599 1600 1600 1600 1600 1601 1601 1601 1601 1601 1601
1435 1439 1443 1445 1449 1451 1454 1458 1461 1465 1470 1474 1479 1483 1486 1490 1493 1496 1500 1503 1507 1510 1513 1517 1519 1523 1526 1528 1532 1534 1537 1540 1542 1545 1547 1549 1551 1553 1556 1558 1560 1563 1565 1567 1569 1571 1573 1575 1576 1578 1579 1580 1581 1582 1583 1584 1585 1586 1588 1589 1590 1591 1592 1593 1594 1594 1595 1595 1595 1596 1596 1597 1598 1598 1598 1598 1598 1598 1599 1599 1599 1599 1599 1599 1600
1429 1433 1437 1440 1443 1446 1449 1454 1459 1464 1469 1473 1476 1479 1482 1487 1490 1493 1497 1500 1503 1507 1510 1513 1517 1520 1523 1526 1529 1531 1534 1537 1539 1542 1544 1546 1549 1551 1553 1556 1558 1560 1562 1564 1566 1568 1570 1572 1574 1575 1576 1578 1579 1580 1581 1582 1583 1584 1586 1587 1588 1589 1590 1591 1592 1593 1593 1593 1594 1594 1595 1595 1596 1596 1596 1596 1596 1597 1597 1597 1597 1597 1597 1598 1598
1424 1427 1431 1434 1437 1441 1445 1451 1457 1463 1466 1469 1472 1475 1479 1482 1486 1489 1493 1496 1499 1503 1506 1510 1514 1517 1520 1523 1526 1529 1532 1534 1537 1539 1541 1543 1546 1548 1550 1553 1555 1557 1559 1561 1563 1565 1567 1569 1571 1572 1574 1575 1576 1577 1579 1580 1581 1582 1584 1585 1586 1587 1588 1589 1590 1590 1591 1592 1592 1592 1593 1594 1594 1594 1594 1595 1595 1595 1595 1595 1595 1595 1595 1596 1596
1419 1422 1426 1429 1432 1436 1442 1447 1452 1456 1460 1464 1467 1471 1474 1478 1482 1486 1489 1492 1495 1499 1503 1507 1510 1513 1517 1520 1523 1525 1528 1531 1533 1535 1538 1540 1542 1545 1548 1550 1552 1554 1556 1558 1560 1562 1564 1566 1568 1569 1571 1572 1574 1575 1576 1578 1579 1580 1582 1583 1584 1585 1586 1587 1588 1588 1589 1589 1590 1590 1591 1592 1592 1592 1593 1593 1593 1593 1593 1593 1593 1593 1593 1593 1594
1416 1419 1422 1426 1430 1435 1440 1444 1448 1452 1456 1460 1464 1467 1471 1474 1479 1482 1485 1488 1492 1496 1500 1503 1507 1510 1513 1517 1519 1522 1525 1527 1530 1532 1534 1537 1540 1542 1544 1546 1549 1551 1553 1555 1557 1559 1561 1563 1564 1566 1568 1569 1571 1572 1574 1575 1576 1578 1579 1581 1582 1583 1584 1585 1585 1586 1586 1587 1587 1588 1588 1589 1590 1590 1590 1591 1591 1590 1590 1590 1590 1591 1591 1591 1592
1412 1416 1419 1424 1429 1433 1436 1439 1443 1447 1452 1456 1460 1463 1467 1470 1474 1477 1481 1485 1489 1493 1496 1500 1503 1507 1510 1513 1516 1519 1522 1524 1526 1529 1531 1534 1537 1539 1541 1543 1545 1548 1549 1552 1554 1555 1557 1559 1561 1563 1564 1566 1568 1569 1571 1572 1574 1575 1577 1578 1579 1581 1582 1582 1583 1584 1584 1584 1585 1585 1586 1587 1587 1587 1588 1588 1588 1588 1588 1588 1588 1588 1589 1589 1589
1408 1411 1415 1420 1425 1428 1431 1435 1439 1443 1447 1451 1455 1459 1463 1466 1470 1474 1478 1482 1486 1490 1493 1497 1500 1504 1507 1510 1513 1515 1518 1520 1523 1526 1529 1531 1534 1536 1538 1540 1542 1544 1546 1548 1550 1552 1554 1556 1558 1560 1561 1563 1565 1566 1567 1569 1571 1572 1574 1575 1577 1578 1579 1580 1580 1581 1581 1582 1582 1582 1583 1584 1584 1584 1585 1585 1585 1586 1585 1585 1585 1586 1586 1587 1586
1404 1407 1411 1416 1420 1423 1426 1430 1434 1439 1443 1447 1451 1455 1459 1463 1466 1470 1475 1479 1483 1486 1490 1494 1497 1500 1503 1506 1509 1512 1515 1517 1520 1523 1526 1528 1531 1533 1535 1537 1539 1541 1543 1545 1547 1548 1550 1552 1554 1556 1558 1560 1561 1563 1564 1566 1568 1569 1571 1572 1573 1575 1576 1577 1577 1578 1579 1579 1579 1580 1580 1581 1581 1581 1582 1582 1583 1583 1582 1582 1582 1583 1584 1583 1583
1400 1404 1408 1411 1415 1418 1422 1426 1431 1435 1440 1444 1448 1452 1455 1459 1463 1468 1472 1476 1479 1483 1486 1490 1494 1497 1500 1502 1506 1509 1512 1515 1518 1520 1523 1525 1527 1530 1532 1534 1536 1538 1540 1542 1543 1545 1547 1549 1551 1553 1555 1556 1558 1559 1561 1563 1564 1566 1567 1569 1570 1572 1572 1574 1574 1575 1576 1576 1576 1577 1578 1578 1579 1579 1579 1580 1580 1580 1579 1579 1579 1580 1580 1580 1580
1397 1400 1403 1406 1410 1413 1417 1422 1426 1432 1437 1441 1445 1449 1453 1457 1461 1465 1469 1472 1476 1480 1483 1487 1490 1493 1496 1499 1503 1506 1509 1512 1515 1517 1519 1522 1524 1526 1528 1531 1532 1534 1536 1538 1540 1542 1544 1545 1547 1549 1551 1553 1554 1556 1557 1559 1561 1563 1564 1566 1567 1568 1569 1570 1571 1572 1572 1573 1573 1574 1574 1575 1576 1576 1577 1577 1577 1577 1576 1575 1576 1576 1576 1576 1576
1393 1395 1398 1402 1405 1408 1413 1418 1423 1428 1433 1437 1441 1445 1449 1453 1457 1461 1465 1469 1472 1476 1479 1483 1486 1489 1493 1497 1500 1503 1506 1509 1511 1513 1516 1518 1521 1523 1525 1527 1529 1531 1533 1535 1537 1539 1540 1541 1543 1545 1547 1548 1550 1552 1554 1556 1558 1559 1561 1563 1564 1565 1566 1567 1568 1568 1569 1569 1570 1571 1571 1572 1573 1573 1574 1574 1574 1573 1573 1572 1572 1573 1573 1572 1571
1388 1391 1394 1397 1401 1405 1410 1415 1420 1424 1428 1433 1437 1441 1445 1450 1454 1458 1462 1465 1469 1473 1476 1480 1483 1486 1490 1494 1497 1500 1503 1505 1508 1510 1513 1515 1517 1519 1521 1523 1525 1527 1529 1531 1533 1534 1536 1537 1539 1541 1542 1544 1546 1548 1550 1552 1554 1556 1558 1559 1560 1561 1563 1563 1564 1565 1565 1566 1567 1567 1568 1569 1569 1569 1570 1570 1570 1570 1568 1568 1568 1569 1569 1569 1568
1384 1388 1391 1394 1399 1403 1407 1411 1416 1421 1425 1429 1434 1438 1443 1447 1450 1454 1459 1463 1467 1470 1473 1477 1480 1484 1488 1490 1493 1497 1499 1502 1505 1507 1510 1512 1514 1516 1518 1520 1521 1523 1526 1527 1529 1530 1532 1534 1535 1536 1538 1539 1541 1544 1547 1549 1550 1552 1554 1555 1556 1557 1558 1559 1560 1560 1561 1562 1563 1563 1564 1565 1565 1566 1566 1567 1566 1566 1564 1563 1563 1565 1565 1564 1564
1380 1384 1387 1391 1395 1398 1402 1407 1412 1417 1421 1425 1430 1435 1438 1442 1447 1452 1456 1460 1464 1467 1471 1474 1478 1481 1484 1487 1490 1493 1496 1499 1501 1504 1507 1509 1511 1512 1514 1516 1518 1520 1522 1523 1525 1526 1528 1530 1531 1532 1534 1535 1538 1540 1543 1545 1547 1548 1550 1551 1552 1553 1554 1555 1556 1556 1557 1558 1558 1559 1560 1561 1561 1562 1563 1563 1563 1562 1561 1559 1559 1560 1560 1560 1560
1380 1382 1385 1388 1392 1396 1400 1404 1409 1414 1418 1424 1429 1433 1437 1442 1447 1451 1455 1458 1462 1465 1469 1472 1475 1478 1481 1484 1488 1490 1493 1496 1498 1501 1503 1505 1507 1509 1510 1513 1515 1517 1518 1519 1521 1523 1524 1526 1527 1528 1530 1532 1534 1536 1539 1541 1543 1545 1546 1547 1548 1549 1550 1550 1551 1552 1553 1554 1554 1555 1556 1556 1557 1558 1559 1559 1559 1559 1557 1555 1554 1554 1555 1555 1555
1381 1383 1385 1388 1391 1396 1400 1404 1409 1414 1419 1424 1429 1433 1437 1442 1446 1450 1453 1456 1460 1463 1466 1470 1473 1476 1478 1482 1484 1487 1490 1492 1495 1498 1499 1501 1503 1505 1507 1510 1511 1513 1514 1516 1517 1519 1520 1522 1524 1525 1527 1528 1530 1532 1535 1537 1539 1541 1542 1543 1544 1545 1546 1546 1547 1548 1549 1550 1550 1551 1552 1552 1553 1554 1555 1555 1556 1555 1554 1552 1549 1549 1550 1551 1550
1380 1383 1385 1387 1390 1394 1398 1403 1408 1413 1418 1423 1427 1431 1436 1440 1444 1448 1451 1454 1458 1461 1464 1467 1470 1472 1475 1478 1481 1484 1486 1489 1492 1494 1495 1497 1500 1502 1504 1506 1508 1509 1511 1512 1514 1515 1517 1519 1520 1522 1523 1524 1526 1529 1531 1533 1535 1537 1538 1539 1540 1541 1542 1542 1543 1545 1545 1546 1547 1548 1548 1549 1549 1550 1551 1551 1552 1552 1551 1548 1545 1545 1546 1547 1546
1381 1384 1386 1389 1392 1395 1398 1403 1408 1412 1417 1421 1426 1430 1434 1439 1443 1446 1449 1453 1456 1458 1461 1464 1467 1469 1472 1475 1478 1481 1483 1486 1488 1490 1492 1494 1496 1498 1501 1503 1504 1506 1507 1508 1510 1511 1513 1515 1516 1518 1519 1520 1522 1525 1528 1529 1531 1533 1534 1535 1536 1537 1537 1538 1539 1541 1542 1542 1543 1544 1545 1545 1545 1546 1547 1547 1548 1548 1547 1544 1541 1540 1542 1543 1542
1381 1384 1387 1391 1394 1397 1400 1404 1408 1412 1416 1420 1425 1429 1433 1437 1441 1444 1447 1451 1453 1456 1459 1461 1464 1467 1470 1472 1475 1478 1480 1483 1485 1487 1489 1491 1493 1495 1497 1499 1500 1502 1503 1505 1507 1508 1510 1511 1512 1514 1515 1516 1518 1521 1524 1525 1527 1529 1530 1531 1532 1532 1533 1534 1535 1536 1537 1538 1539 1540 1541 1541 1541 1542 1543 1544 1544 1544 1543 1541 1538 1537 1537 1538 1538
1382 1384 1387 1391 1394 1398 1402 1405 1408 1412 1416 1420 1424 1428 1432 1435 1439 1442 1445 1448 1451 1454 1457 1459 1462 1465 1467 1470 1472 1475 1477 1479 1482 1484 1486 1488 1490 1492 1494 1496 1497 1499 1501 1502 1504 1505 1507 1508 1509 1510 1512 1513 1515 1517 1520 1521 1523 1525 1526 1527 1528 1528 1528 1529 1531 1532 1533 1534 1535 1536 1537 1538 1538 1538 1539 1540 1540 1540 1539 1538 1536 1533 1533 1534 1534
1383 1385 1388 1391 1394 1398 1401 1404 1407 1410 1414 1418 1423 1427 1430 1434 1437 1440 1443 1446 1449 1452 1455 1458 1460 1463 1465 1468 1470 1472 1474 1476 1478 1481 1483 1485 1487 1489 1491 1492 1494 1496 1498 1499 1500 1502 1503 1504 1506 1507 1509 1510 1511 1514 1516 1517 1519 1521 1522 1523 1524 1524 1524 1526 1527 1528 1529 1530 1531 1532 1533 1534 1534 1535 1535 1536 1536 1536 1536 1535 1533 1530 1528 1530 1531
1386 1387 1389 1392 1395 1398 1400 1403 1406 1410 1413 1418 1421 1425 1429 1432 1435 1438 1441 1444 1447 1450 1453 1456 1458 1461 1463 1465 1467 1469 1471 1473 1475 1477 1479 1481 1483 1485 1487 1489 1491 1492 1494 1495 1497 1498 1499 1501 1503 1504 1505 1506 1508 1510 1512 1514 1515 1517 1518 1519 1520 1520 1521 1523 1523 1524 1525 1526 1528 1529 1530 1530 1531 1531 1532 1532 1533 1533 1532 1531 1530 1526 1524 1527 1528
1390 1390 1392 1393 1395 1398 1401 1403 1406 1410 1413 1417 1420 1424 1427 1430 1434 1436 1439 1442 1446 1449 1451 1454 1456 1458 1460 1462 1464 1466 1468 1470 1472 1474 1476 1478 1480 1482 1484 1486 1487 1489 1490 1492 1493 1495 1496 1497 1499 1500 1501 1503 1505 1506 1508 1510 1512 1513 1515 1516 1516 1517 1518 1520 1520 1520 1521 1523 1524 1525 1526 1527 1528 1528 1528 1529 1529 1529 1528 1527 1527 1524 1522 1523 1525
1395 1395 1396 1396 1397 1399 1401 1403 1406 1410 1413 1416 1419 1422 1426 1429 1432 1435 1438 1441 1444 1446 1449 1451 1453 1455 1457 1459 1461 1463 1465 1467 1469 1470 1472 1474 1476 1478 1480 1482 1484 1485 1487 1488 1489 1491 1492 1494 1495 1497 1498 1499 1501 1503 1505 1507 1508 1510 1511 1512 1513 1514 1515 1516 1516 1517 1518 1520 1521 1522 1523 1523 1524 1524 1524 1524 1524 1525 1524 1524 1524 1523 1521 1520 1521
1399 1400 1400 1400 1400 1401 1403 1405 1408 1410 1413 1416 1419 1422 1425 1428 1431 1434 1436 1439 1442 1444 1447 1449 1451 1453 1455 1456 1458 1460 1462 1463 1465 1467 1469 1470 1472 1475 1476 1478 1480 1481 1483 1484 1486 1487 1488 1490 1491 1493 1494 1496 1498 1500 1501 1503 1505 1506 1507 1509 1510 1511 1512 1513 1513 1514 1515 1517 1517 1518 1519 1520 1520 1520 1520 1521 1520 1521 1521 1520 1520 1521 1520 1519 1518
1404 1404 1405 1404 1404 1404 1406 1408 1410 1412 1415 1418 1420 1422 1424 1427 1430 1433 1435 1438 1440 1442 1444 1446 1448 1450 1452 1453 1455 1457 1458 1460 1461 1463 1465 1467 1469 1471 1472 1474 1476 1477 1479 1480 1482 1484 1485 1486 1488 1489 1491 1493 1495 1496 1498 1499 1501 1502 1504 1505 1506 1507 1509 1510 1510 1511 1513 1514 1514 1515 1516 1516 1517 1517 1517 1517 1517 1517 1517 1517 1517 1517 1516 1516 1515
1408 1408 1408 1408 1408 1408 1409 1410 1412 1415 1417 1419 1422 1424 1425 1427 1430 1432 1434 1437 1439 1440 1442 1444 1446 1448 1449 1451 1452 1453 1455 1457 1458 1460 1461 1463 1465 1467 1469 1470 1472 1473 1475 1477 1479 1480 1481 1483 1484 1486 1488 1490 1492 1493 1494 1496 1497 1499 1500 1501 1503 1504 1505 1506 1507 1508 1510 1510 1511 1511 1512 1512 1513 1514 1514 1514 1514 1513 1513 1513 1513 1513 1513 1513 1512
1412 1412 1412 1412 1411 1412 1412 1413 1415 1418 1419 1421 1422 1424 1425 1427 1429 1430 1433 1435 1437 1439 1440 1442 1443 1445 1447 1448 1450 1451 1453 1454 1456 1457 1458 1460 1462 1464 1466 1467 1469 1470 1472 1474 1475 1477 1478 1480 1481 1483 1485 1487 1488 1489 1491 1492 1494 1495 1496 1498 1499 1501 1502 1503 1504 1505 1506 1507 1507 1508 1508 1509 1509 1510 1511 1511 1511 1510 1510 1510 1510 1509 1509 1509 1508
1416 1416 1416 1415 1415 1416 1417 1418 1419 1421 1421 1422 1423 1424 1425 1426 1428 1429 1431 1433 1435 1437 1438 1440 1441 1443 1444 1445 1447 1449 1450 1452 1453 1454 1455 1457 1459 1460 1462 1464 1466 1468 1469 1471 1473 1474 1476 1477 1479 1480 1482 1483 1484 1486 1487 1489 1490 1492 1493 1495 1496 1497 1498 1499 1501 1502 1503 1504 1504 1504 1505 1505 1506 1506 1507 1507 1508 1508 1507 1506 1506 1506 1505 1505 1504
1419 1419 1419 1419 1419 1420 1421 1421 1422 1422 1423 1423 1424 1424 1425 1426 1427 1428 1430 1431 1433 1434 1436 1437 1438 1440 1441 1442 1444 1445 1447 1449 1450 1451 1452 1454 1455 1457 1459 1461 1463 1465 1467 1469 1470 1472 1473 1475 1477 1478 1479 1480 1482 1483 1484 1486 1487 1489 1490 1491 1493 1494 1495 1496 1497 1499 1499 1500 1501 1501 1501 1502 1503 1503 1504 1504 1505 1505 1504 1504 1503 1503 1502 1502 1501
1421 1421 1421 1421 1422 1423 1423 1423 1423 1423 1424 1424 1424 1425 1426 1427 1428 1429 1429 1430 1431 1432 1433 1434 1436 1437 1439 1440 1441 1443 1444 1446 1447 1449 1450 1451 1453 1455 1457 1459 1461 1463 1465 1466 1468 1470 1471 1473 1474 1475 1476 1478 1479 1480 1482 1483 1484 1486 1487 1488 1490 1491 1492 1494 1495 1496 1496 1497 1498 1498 1499 1500 1500 1501 1501 1502 1502 1502 1502 1502 1501 1500 1500 1499 1498
1423 1423 1423 1423 1423 1424 1425 1425 1424 1424 1424 1423 1424 1425 1426 1427 1428 1429 1430 1430 1430 1431 1432 1433 1435 1436 1437 1438 1440 1441 1442 1443 1445 1446 1448 1449 1451 1453 1455 1457 1459 1461 1463 1464 1466 1468 1469 1470 1472 1473 1474 1475 1476 1477 1479 1480 1481 1483 1484 1485 1487 1488 1489 1490 1492 1493 1494 1494 1495 1496 1497 1498 1498 1499 1499 1500 1500 1500 1500 1500 1499 1499 1498 1497 1496